This demonstration page uses our WeatherBlox Daily Observations layout. Learn more.

Left ArrowRight Arrow

Hourly Observations for May 11, 2020

Temp ( °F °C ) Dew Point ( °F °C ) Humidity (%) Winds ( mph kmh ) Pressure ( in mb ) Visibility ( mi km ) Precip ( " mm )
12:53 am 00:53 Clear 70 21.1 39 3.9 32 32 SSW 9 15 29.79 1009 10 16 0.00 0.00
1:53 am 01:53 Clear 67 19.4 41 5 39 39 SSW 13 20 29.80 1009 10 16 0.00 0.00
2:53 am 02:53 Clear 64 17.8 41 5 43 43 SSW 9 15 29.80 1009 10 16 0.00 0.00
3:53 am 03:53 Clear 62 16.7 40 4.4 44 44 SSE 8 13 29.82 1010 10 16 0.00 0.00
4:53 am 04:53 Clear 59 15 41 5 51 51 ESE 3 6 29.83 1010 10 16 0.00 0.00
5:53 am 05:53 Clear 57 13.9 43 6.1 60 60 S 8 13 29.84 1011 10 16 0.00 0.00
6:53 am 06:53 Sunny 56 13.3 44 6.7 65 65 SE 3 6 29.85 1011 10 16 0.00 0.00
7:53 am 07:53 Sunny 59 15 44 6.7 58 58 SSW 6 9 29.85 1011 10 16 0.00 0.00
8:53 am 08:53 Sunny 62 16.7 42 5.6 48 48 SSE 10 17 29.85 1011 10 16 0.00 0.00
9:53 am 09:53 Partly Cloudy 62 16.7 41 5 46 46 S 9 15 29.85 1011 10 16 0.00 0.00
10:53 am 10:53 Mostly Cloudy 64 17.8 38 3.3 38 38 SSW 14 22 29.88 1012 10 16 0.00 0.00
11:53 am 11:53 Cloudy with Light Rain 58 14.4 47 8.3 67 67 SW 7 11 29.90 1013 10 16 0.01 0.25
12:53 pm 12:53 Cloudy with Light Rain 56 13.3 49 9.4 77 77 N 5 7 29.92 1013 10 16 0.07 1.78
1:53 pm 13:53 Cloudy with Rain 55 12.8 48 8.9 77 77 E 5 7 29.93 1014 10 16 0.07 1.78
2:53 pm 14:53 Cloudy with Rain 54 12.2 50 10 87 87 Calm 29.93 1014 6 10 0.09 2.29
3:53 pm 15:53 Cloudy with Light Rain 55 12.8 49 9.4 80 80 SSE 3 6 29.91 1013 10 16 0.02 0.51
4:19 pm 16:19 Cloudy 55 12.8 50 10 83 83 S 3 6 29.93 1014 10 16 0.00 0.00
4:53 pm 16:53 Cloudy 55 12.8 51 10.6 87 87 NE 6 9 29.91 1013 10 16 0.00 0.00
5:53 pm 17:53 Cloudy 55 12.8 51 10.6 87 87 NW 5 7 29.89 1012 10 16 0.00 0.00
6:53 pm 18:53 Cloudy with Light Rain 55 12.8 52 11.1 90 90 N 3 6 29.88 1012 10 16 0.01 0.25
7:12 pm 19:12 Cloudy 54 12.2 51 10.6 90 90 N 7 11 29.88 1012 10 16 0.00 0.00
7:19 pm 19:19 Cloudy 54 12.2 51 10.6 90 90 NNW 7 11 29.88 1012 10 16 0.00 0.00
7:26 pm 19:26 Cloudy with Light Rain 54 12.2 51 10.6 90 90 NNW 5 7 29.88 1012 10 16 0.00 0.00
7:40 pm 19:40 Cloudy with Light Rain 54 12.2 51 10.6 90 90 N 5 7 29.87 1012 10 16 0.01 0.25
7:53 pm 19:53 Cloudy 54 12.2 51 10.6 90 90 N 6 9 29.87 1011 10 16 0.01 0.25
8:53 pm 20:53 Cloudy 54 12.2 52 11.1 93 93 N 7 11 29.86 1011 10 16 0.00 0.00
9:53 pm 21:53 Cloudy 54 12.2 52 11.1 93 93 ENE 3 6 29.87 1012 10 16 0.00 0.00
10:53 pm 22:53 Cloudy 55 12.8 52 11.1 90 90 Calm 29.88 1012 10 16 0.00 0.00
11:00 pm 23:00 Cloudy 54 12.2 52 11.1 93 93 SE 6 9 29.89 1012 10 16 0.00 0.00
11:19 pm 23:19 Cloudy 54 12.2 52 11.1 93 93 E 5 7 29.88 1012 10 16 0.00 0.00
11:26 pm 23:26 Cloudy 54 12.2 52 11.1 93 93 Calm 29.88 1012 10 16 0.00 0.00
11:53 pm 23:53 Cloudy 54 12.2 53 11.7 97 97 Calm 29.87 1012 10 16 0.00 0.00

Powered by AerisWeather